sat.trackr.live / text

‹ back to catalog

LIME

NORAD 62648 · 2025-009AR

PAYLOAD ACTIVE UNKNOWN

§ Identity

Operator
Country
US
Launch date
2025-01-14
Launch site
AFWTR
Launch vehicle
Mass (kg)
RCS (m²)

External: N2YO · Heavens-Above · Gunter

§ Orbital elements

Epoch: 2026-05-25T05:06:25.705728Z

Period
94.10 min
Inclination
97.3952°
Eccentricity
0.0003153
Mean motion
15.30355310 rev/d
Perigee alt
472.6 km
Apogee alt
476.9 km
Semi-major
6,852.9 km
B*
3.3235e-4
RAAN
227.5746°
Arg perigee
86.0460°
Mean anomaly
274.1141°
Rev number
7,545

§ Raw data

LIME1 62648U 25009AR  26145.21279752  .00009685  00000+0  33235-3 0  99912 62648  97.3952 227.5746 0003153  86.0460 274.1141 15.30355310 75459

JSON: /api/v1/satellites/62648 · /tle

For live sub-satellite position, see the globe view (requires WebGL).

§ Visibility from observer

Set your observer location to see the next 7 days of passes ≥ 10°. The values pass through the URL so the page stays shareable.

No JS? Fill the form by hand. The geolocation button needs JavaScript.

§ Radio — SatNOGS DB

ModeDescriptionDownlinkUplink
GMSK Mode S - GMSK 48kbps 2.240 GHz
GMSK Mode S - GMSK 96kbps 2.240 GHz

2 transmitters · refreshed weekly from db.satnogs.org